FW2584 Weather Reports


Display with metric or nautical units.
time (UTC)temp
F
wind
direction
speed
MPH
gust
MPH
rain 1hr
in
rain 24hr
in
rain mn
in
humidity
%
barometer
mb
20260901184024 95 0 0.0 4.0 0.00 0.00 0.00 60 1017.5
20260901183525 95 0 0.0 1.0 0.00 0.00 0.00 56 1017.6
20260901183039 95 0 0.0 3.0 0.00 0.00 0.00 54 1017.6
20260901182521 95 0 0.0 3.0 0.00 0.00 0.00 59 1017.7
20260901182025 95 0 0.0 4.0 0.00 0.00 0.00 56 1017.6
20260901181543 94 0 0.0 4.0 0.00 0.00 0.00 57 1017.6
20260901181025 94 0 1.0 4.0 0.00 0.00 0.00 59 1017.7
20260901180527 95 0 0.0 1.0 0.00 0.00 0.00 56 1017.8
20260901180039 95 0 0.0 1.0 0.00 0.00 0.00 58 1017.9
20260901175525 94 0 0.0 1.0 0.00 0.00 0.00 59 1017.9
20260901175025 94 0 0.0 4.0 0.00 0.00 0.00 60 1017.9
20260901174541 94 0 0.0 4.0 0.00 0.00 0.00 60 1017.9
20260901174023 94 0 1.0 3.0 0.00 0.00 0.00 60 1018.0
20260901173525 94 0 0.0 5.0 0.00 0.00 0.00 59 1018.0
20260901173043 94 0 0.0 5.0 0.00 0.00 0.00 61 1018.1
20260901172528 95 330 1.0 4.0 0.00 0.00 0.00 62 1018.1
20260901172023 94 0 0.0 3.0 0.00 0.00 0.00 65 1018.2
20260901171601 94 0 0.0 3.0 0.00 0.00 0.00 62 1018.2
20260901171024 94 0 0.0 1.0 0.00 0.00 0.00 64 1018.3
20260901170525 94 0 0.0 1.0 0.00 0.00 0.00 66 1018.4
20260901170041 93 0 0.0 3.0 0.00 0.00 0.00 65 1018.4
20260901165524 93 0 0.0 3.0 0.00 0.00 0.00 65 1018.5
20260901165024 93 0 1.0 3.0 0.00 0.00 0.00 65 1018.6
20260901164543 93 0 0.0 0.0 0.00 0.00 0.00 69 1018.5
20260901164026 92 0 0.0 3.0 0.00 0.00 0.00 68 1018.6
20260901163526 92 0 0.0 4.0 0.00 0.00 0.00 67 1018.6
20260901163039 92 0 0.0 7.0 0.00 0.00 0.00 70 1018.8
20260901162525 92 245 1.0 7.0 0.00 0.00 0.00 66 1018.7
20260901162025 92 0 0.0 1.0 0.00 0.00 0.00 64 1018.8
20260901161543 92 0 0.0 3.0 0.00 0.00 0.00 65 1018.9
20260901161026 92 0 0.0 3.0 0.00 0.00 0.00 64 1018.9
20260901160524 91 0 0.0 6.0 0.00 0.00 0.00 71 1019.1
20260901160041 91 0 0.0 8.0 0.00 0.00 0.00 71 1018.9
20260901155525 91 314 1.0 8.0 0.00 0.00 0.00 71 1019.1
20260901155023 91 0 0.0 1.0 0.00 0.00 0.00 70 1019.1
20260901154541 90 0 0.0 1.0 0.00 0.00 0.00 72 1019.2
20260901154024 90 0 0.0 1.0 0.00 0.00 0.00 73 1019.1
20260901153529 89 0 0.0 5.0 0.00 0.00 0.00 72 1019.2
20260901153051 89 0 0.0 6.0 0.00 0.00 0.00 73 1019.2
20260901152524 89 345 2.0 6.0 0.00 0.00 0.00 72 1019.3
20260901152025 89 355 1.0 6.0 0.00 0.00 0.00 74 1019.3
20260901151542 89 344 1.0 5.0 0.00 0.00 0.00 75 1019.3
20260901151027 88 0 0.0 4.0 0.00 0.00 0.00 77 1019.3
20260901150525 88 0 0.0 4.0 0.00 0.00 0.00 78 1019.3
20260901150043 87 306 1.0 4.0 0.00 0.00 0.00 79 1019.3
20260901145527 87 0 0.0 4.0 0.00 0.00 0.00 82 1019.4
20260901145027 86 0 0.0 4.0 0.00 0.00 0.00 81 1019.5
20260901144542 86 296 0.0 4.0 0.00 0.00 0.00 82 1019.3
20260901144024 85 0 0.0 1.0 0.00 0.00 0.00 82 1019.4
20260901143526 85 0 0.0 1.0 0.00 0.00 0.00 83 1019.3
20260901143042 84 0 0.0 1.0 0.00 0.00 0.00 84 1019.2
20260901142526 84 0 0.0 1.0 0.00 0.00 0.00 87 1019.4
20260901142021 84 0 0.0 1.0 0.00 0.00 0.00 87 1019.4
20260901141544 84 0 0.0 1.0 0.00 0.00 0.00 88 1019.4
20260901141024 83 0 0.0 1.0 0.00 0.00 0.00 88 1019.3
20260901140523 83 0 0.0 4.0 0.00 0.00 0.00 89 1019.3
20260901140043 83 0 0.0 4.0 0.00 0.00 0.00 89 1019.3
20260901135524 82 0 0.0 1.0 0.00 0.00 0.00 90 1019.2
20260901135025 82 0 0.0 1.0 0.00 0.00 0.00 90 1019.2
20260901134539 81 0 0.0 1.0 0.00 0.00 0.00 91 1019.2
20260901134027 81 0 0.0 3.0 0.00 0.00 0.00 92 1019.3
20260901133525 81 0 0.0 3.0 0.00 0.00 0.00 93 1019.2
20260901133053 80 0 0.0 1.0 0.00 0.00 0.00 94 1019.2
20260901132524 80 0 0.0 1.0 0.00 0.00 0.00 94 1019.3
20260901132024 80 0 0.0 0.0 0.00 0.00 0.00 95 1019.2
20260901131545 79 0 0.0 3.0 0.00 0.00 0.00 96 1019.3
20260901131023 79 0 0.0 3.0 0.00 0.00 0.00 97 1019.3
20260901130525 79 0 0.0 4.0 0.00 0.00 0.00 97 1019.3
20260901130039 78 0 0.0 4.0 0.00 0.00 0.00 98 1019.4
20260901125523 78 0 0.0 4.0 0.00 0.00 0.00 99 1019.4
20260901125024 78 0 0.0 1.0 0.00 0.00 0.00 99 1019.4
20260901124548 77 0 0.0 1.0 0.00 0.00 0.00 100 1019.3
20260901124024 77 0 0.0 0.0 0.00 0.00 0.00 100 1019.3
20260901123526 76 0 0.0 0.0 0.00 0.00 0.00 100 1019.3
20260901123042 76 0 0.0 0.0 0.00 0.00 0.00 100 1019.2
20260901122525 75 0 0.0 0.0 0.00 0.00 0.00 100 1019.2
20260901122024 75 0 0.0 0.0 0.00 0.00 0.00 100 1019.1
20260901121544 74 0 0.0 0.0 0.00 0.00 0.00 100 1019.1
20260901121024 74 0 0.0 0.0 0.00 0.00 0.00 99 1019.1
20260901120524 74 0 0.0 0.0 0.00 0.00 0.00 100 1019.0
20260901120044 73 0 0.0 0.0 0.00 0.00 0.00 100 1019.0
20260901115523 73 0 0.0 0.0 0.00 0.00 0.00 99 1018.9
20260901115027 73 0 0.0 0.0 0.00 0.00 0.00 99 1018.9
20260901114556 73 0 0.0 0.0 0.00 0.00 0.00 99 1018.8
20260901114024 73 0 0.0 0.0 0.00 0.00 0.00 99 1018.8
20260901113524 73 0 0.0 1.0 0.00 0.00 0.00 99 1018.8
20260901113041 73 0 0.0 1.0 0.00 0.00 0.00 99 1018.7
20260901112527 73 0 0.0 1.0 0.00 0.00 0.00 99 1018.6
20260901112023 73 0 0.0 0.0 0.00 0.00 0.00 99 1018.5
20260901111548 73 0 0.0 0.0 0.00 0.00 0.00 99 1018.5
20260901111024 73 0 0.0 0.0 0.00 0.00 0.00 99 1018.5
20260901110524 73 0 0.0 0.0 0.00 0.00 0.00 99 1018.4
20260901110047 73 0 0.0 0.0 0.00 0.00 0.00 99 1018.4
20260901105521 73 0 0.0 0.0 0.00 0.00 0.00 99 1018.4
20260901105023 73 0 0.0 0.0 0.00 0.00 0.00 99 1018.3
20260901104543 73 0 0.0 0.0 0.00 0.00 0.00 99 1018.3
20260901104024 73 0 0.0 0.0 0.00 0.00 0.00 99 1018.3
20260901103524 73 0 0.0 0.0 0.00 0.00 0.00 99 1018.3
20260901103042 73 0 0.0 0.0 0.00 0.00 0.00 99 1018.3
20260901102528 73 0 0.0 0.0 0.00 0.00 0.00 99 1018.3
20260901102025 73 0 0.0 0.0 0.00 0.00 0.00 99 1018.3
20260901101544 73 0 0.0 0.0 0.00 0.00 0.00 99 1018.4
20260901101023 73 0 0.0 0.0 0.00 0.00 0.00 99 1018.4
20260901100527 73 0 0.0 0.0 0.00 0.00 0.00 99 1018.4
20260901100047 73 0 0.0 0.0 0.00 0.00 0.00 99 1018.3
20260901095523 73 0 0.0 0.0 0.00 0.00 0.00 99 1018.3
20260901095025 73 0 0.0 0.0 0.00 0.00 0.00 99 1018.3
20260901094540 73 0 0.0 0.0 0.00 0.00 0.00 99 1018.3
20260901094025 73 0 0.0 0.0 0.00 0.00 0.00 99 1018.3
20260901093524 73 0 0.0 0.0 0.00 0.00 0.00 99 1018.3
20260901093041 73 0 0.0 0.0 0.00 0.00 0.00 99 1018.3
20260901092524 73 0 0.0 0.0 0.00 0.00 0.00 99 1018.3
20260901092027 73 0 0.0 0.0 0.00 0.00 0.00 99 1018.3
20260901091551 73 0 0.0 0.0 0.00 0.00 0.00 99 1018.3
20260901091028 73 0 0.0 0.0 0.00 0.00 0.00 99 1018.3
20260901090523 73 0 0.0 0.0 0.00 0.00 0.00 99 1018.3
20260901090040 73 0 0.0 0.0 0.00 0.00 0.00 99 1018.2
20260901085523 73 0 0.0 0.0 0.00 0.00 0.00 99 1018.2
20260901085026 73 0 0.0 0.0 0.00 0.00 0.00 99 1018.2
20260901084538 74 0 0.0 0.0 0.00 0.00 0.00 99 1018.3
20260901084024 74 0 0.0 0.0 0.00 0.00 0.00 99 1018.3
20260901083524 74 0 0.0 0.0 0.00 0.00 0.00 99 1018.4
20260901083039 74 0 0.0 0.0 0.00 0.00 0.00 99 1018.4
20260901082523 74 0 0.0 0.0 0.00 0.00 0.00 99 1018.4
20260901082023 74 0 0.0 0.0 0.00 0.00 0.00 99 1018.4
20260901081547 74 0 0.0 0.0 0.00 0.00 0.00 98 1018.4
20260901081024 74 0 0.0 0.0 0.00 0.00 0.00 99 1018.3
20260901080528 74 0 0.0 0.0 0.00 0.00 0.00 99 1018.3
20260901080044 74 0 0.0 0.0 0.00 0.00 0.00 99 1018.4
20260901075525 74 0 0.0 0.0 0.00 0.00 0.00 98 1018.5
20260901075025 74 0 0.0 0.0 0.00 0.00 0.00 98 1018.5
20260901074550 74 0 0.0 0.0 0.00 0.00 0.00 98 1018.5
20260901074023 74 0 0.0 0.0 0.00 0.00 0.00 98 1018.5
20260901073524 74 0 0.0 0.0 0.00 0.00 0.00 98 1018.6
20260901073041 74 0 0.0 0.0 0.00 0.00 0.00 98 1018.6
20260901072523 74 0 0.0 0.0 0.00 0.00 0.00 98 1018.5
20260901072021 74 0 0.0 0.0 0.00 0.00 0.00 98 1018.5
20260901071544 75 0 0.0 0.0 0.00 0.00 0.00 98 1018.6
20260901071023 75 0 0.0 0.0 0.00 0.00 0.00 98 1018.6
20260901070524 75 0 0.0 0.0 0.00 0.00 0.00 98 1018.6
20260901070042 75 0 0.0 0.0 0.00 0.00 0.00 98 1018.4
20260901065526 75 0 0.0 0.0 0.00 0.00 0.00 98 1018.5
20260901065024 75 0 0.0 0.0 0.00 0.00 0.00 98 1018.5
20260901064542 75 0 0.0 0.0 0.00 0.00 0.00 98 1018.5
20260901064024 75 0 0.0 0.0 0.00 0.00 0.00 98 1018.7
20260901063524 75 0 0.0 0.0 0.00 0.00 0.00 98 1018.6
20260901063043 75 0 0.0 0.0 0.00 0.00 0.00 98 1018.6
20260901062528 75 0 0.0 0.0 0.00 0.00 0.00 97 1018.7
20260901062024 75 0 0.0 0.0 0.00 0.00 0.00 97 1018.6
20260901061543 75 0 0.0 0.0 0.00 0.00 0.00 97 1018.7
20260901061025 75 0 0.0 0.0 0.00 0.00 0.00 97 1018.8
20260901060525 75 0 0.0 0.0 0.00 0.00 0.00 97 1018.8
20260901060041 75 0 0.0 0.0 0.00 0.00 0.00 97 1018.9
20260901055524 75 0 0.0 0.0 0.00 0.00 0.00 97 1018.9
20260901055026 75 0 0.0 0.0 0.00 0.00 0.00 97 1018.8
20260901054542 76 0 0.0 0.0 0.00 0.00 0.00 97 1018.9
20260901054023 76 0 0.0 0.0 0.00 0.00 0.00 97 1019.0
20260901053524 76 0 0.0 0.0 0.00 0.00 0.00 97 1019.1
20260901053050 76 0 0.0 0.0 0.00 0.00 0.00 97 1019.2
20260901052523 76 0 0.0 0.0 0.00 0.00 0.00 97 1019.1
20260901052026 76 0 0.0 0.0 0.00 0.00 0.00 97 1019.1
20260901051541 76 0 0.0 0.0 0.00 0.00 0.00 97 1019.0
20260901051026 76 0 0.0 0.0 0.00 0.00 0.00 97 1019.2
20260901050524 76 0 0.0 0.0 0.00 0.00 0.00 97 1019.1
20260901050041 76 0 0.0 0.0 0.00 0.00 0.00 97 1019.2
20260901045523 76 0 0.0 0.0 0.00 0.00 0.00 97 1019.2
20260901045024 76 0 0.0 0.0 0.00 0.00 0.00 96 1019.2
20260901044543 76 0 0.0 0.0 0.00 0.00 0.00 96 1019.1
20260901044021 76 0 0.0 0.0 0.00 0.00 0.00 96 1019.1
20260901043524 76 0 0.0 0.0 0.00 0.00 0.00 96 1019.1
20260901043042 76 0 0.0 0.0 0.00 0.00 0.00 96 1019.1
20260901042524 76 0 0.0 0.0 0.00 0.00 0.00 96 1019.0
20260901042025 76 0 0.0 0.0 0.00 0.00 0.00 96 1019.0
20260901041543 76 0 0.0 0.0 0.00 0.00 0.00 96 1018.9
20260901041024 76 0 0.0 0.0 0.00 0.00 0.00 96 1019.1
20260901040524 76 0 0.0 0.0 0.00 0.00 0.00 96 1019.0
20260901040054 77 0 0.0 0.0 0.00 0.00 0.00 96 1019.1
20260901035523 77 0 0.0 0.0 0.00 0.00 0.00 96 1019.1
20260901035023 77 0 0.0 0.0 0.00 0.00 0.00 96 1019.1
20260901034547 77 0 0.0 0.0 0.00 0.00 0.00 96 1019.1
20260901034021 77 0 0.0 0.0 0.00 0.00 0.00 95 1019.0
20260901033522 77 0 0.0 0.0 0.00 0.00 0.00 95 1019.1
20260901033041 77 0 0.0 0.0 0.00 0.00 0.00 95 1019.2
20260901032524 77 0 0.0 0.0 0.00 0.00 0.00 95 1019.1
20260901032024 77 0 0.0 0.0 0.00 0.00 0.00 95 1019.0
20260901031542 77 0 0.0 0.0 0.00 0.00 0.00 95 1019.1
20260901031024 77 0 0.0 0.0 0.00 0.00 0.00 95 1019.1
20260901030523 78 0 0.0 0.0 0.00 0.00 0.00 95 1019.0
20260901030046 78 0 0.0 0.0 0.00 0.00 0.00 95 1019.1
20260901025525 78 0 0.0 0.0 0.00 0.00 0.00 94 1019.1
20260901025026 78 0 0.0 0.0 0.00 0.00 0.00 94 1019.1
20260901024543 78 0 0.0 0.0 0.00 0.00 0.00 94 1019.0
20260901024028 78 0 0.0 0.0 0.00 0.00 0.00 94 1019.1
20260901023521 78 0 0.0 0.0 0.00 0.00 0.00 93 1019.1
20260901023039 78 0 0.0 0.0 0.00 0.00 0.00 93 1019.0
20260901022525 78 0 0.0 0.0 0.00 0.00 0.00 93 1018.9
20260901022026 78 0 0.0 0.0 0.00 0.00 0.00 93 1018.8
20260901021539 78 0 0.0 0.0 0.00 0.00 0.00 93 1018.9
20260901021024 78 0 0.0 0.0 0.00 0.00 0.00 92 1018.9
20260901020526 78 0 0.0 0.0 0.00 0.00 0.00 92 1018.8
20260901020042 78 0 0.0 0.0 0.00 0.00 0.00 92 1018.7
20260901015525 78 0 0.0 0.0 0.00 0.00 0.00 92 1018.6
20260901015023 78 0 0.0 0.0 0.00 0.00 0.00 92 1018.7
20260901014541 78 0 0.0 0.0 0.00 0.00 0.00 92 1018.6
20260901014026 78 0 0.0 0.0 0.00 0.00 0.00 92 1018.5
20260901013525 78 0 0.0 0.0 0.00 0.00 0.00 92 1018.5
20260901013102 78 0 0.0 0.0 0.00 0.00 0.00 91 1018.4
20260901012523 79 0 0.0 0.0 0.00 0.00 0.00 92 1018.2
20260901012027 79 0 0.0 0.0 0.00 0.00 0.00 92 1018.1
20260901011541 79 0 0.0 0.0 0.00 0.00 0.00 92 1018.0
20260901011024 79 0 0.0 0.0 0.00 0.00 0.00 91 1018.0
20260901010524 79 0 0.0 0.0 0.00 0.00 0.00 90 1017.8
20260901010042 79 0 0.0 0.0 0.00 0.00 0.00 89 1017.9
20260901005524 80 0 0.0 0.0 0.00 0.00 0.00 89 1017.8
20260901005024 80 0 0.0 0.0 0.00 0.00 0.00 89 1017.7
20260901004545 80 0 0.0 0.0 0.00 0.00 0.00 89 1017.7
20260901004024 80 0 0.0 0.0 0.00 0.00 0.00 88 1017.6
20260901003524 80 0 0.0 0.0 0.00 0.00 0.00 88 1017.6
20260901003042 80 0 0.0 0.0 0.00 0.00 0.00 88 1017.6
20260901002524 81 0 0.0 0.0 0.00 0.00 0.00 88 1017.6
20260901002025 81 0 0.0 0.0 0.00 0.00 0.00 88 1017.6
20260901001540 81 0 0.0 0.0 0.00 0.00 0.00 87 1017.5
20260901001024 81 0 0.0 0.0 0.00 0.00 0.00 86 1017.5
20260901000524 82 0 0.0 0.0 0.00 0.00 0.00 85 1017.4
20260901000046 82 0 0.0 0.0 0.00 0.00 0.00 84 1017.3
20260831235524 82 0 0.0 0.0 0.00 0.00 0.00 82 1017.2
20260831235034 83 0 0.0 0.0 0.00 0.00 0.00 82 1017.3
20260831234548 83 0 0.0 0.0 0.00 0.00 0.00 82 1017.2
20260831234024 83 0 0.0 0.0 0.00 0.00 0.00 81 1017.3
20260831233527 84 0 0.0 0.0 0.00 0.00 0.00 80 1017.3
20260831233038 84 0 0.0 0.0 0.00 0.00 0.00 79 1017.4
20260831232523 85 0 0.0 0.0 0.00 0.00 0.00 78 1017.4
20260831232024 85 0 0.0 0.0 0.00 0.00 0.00 77 1017.5
20260831231542 86 0 0.0 0.0 0.00 0.00 0.00 76 1017.5
20260831231025 87 0 0.0 0.0 0.00 0.00 0.00 76 1017.5
20260831230525 87 0 0.0 0.0 0.00 0.00 0.00 74 1017.5
20260831230041 88 0 0.0 1.0 0.00 0.00 0.00 74 1017.5
20260831225525 88 0 0.0 1.0 0.00 0.00 0.00 72 1017.5
20260831225024 89 0 0.0 0.0 0.00 0.00 0.00 71 1017.5
20260831224540 89 0 0.0 1.0 0.00 0.00 0.00 69 1017.6
20260831224025 90 0 0.0 1.0 0.00 0.00 0.00 66 1017.4
20260831223525 90 0 0.0 0.0 0.00 0.00 0.00 69 1017.3
20260831223043 90 0 0.0 1.0 0.00 0.00 0.00 65 1017.3
20260831222526 90 0 0.0 1.0 0.00 0.00 0.00 66 1017.3
20260831222024 90 0 0.0 1.0 0.00 0.00 0.00 65 1017.3
20260831221559 90 0 0.0 4.0 0.00 0.00 0.00 64 1017.1
20260831221024 91 0 0.0 4.0 0.00 0.00 0.00 63 1017.2
20260831220525 91 0 0.0 4.0 0.00 0.00 0.00 64 1017.2
20260831220042 91 0 0.0 3.0 0.00 0.00 0.00 64 1017.2
20260831215525 91 0 0.0 1.0 0.00 0.00 0.00 64 1017.3
20260831215030 91 0 0.0 5.0 0.00 0.00 0.00 65 1017.3
20260831214544 91 0 0.0 5.0 0.00 0.00 0.00 64 1017.4
20260831214024 92 0 0.0 3.0 0.00 0.00 0.00 62 1017.4
20260831213527 93 303 0.0 2.0 0.00 0.00 0.00 62 1017.5
20260831213044 93 304 0.0 2.0 0.00 0.00 0.00 61 1017.5
20260831212523 93 0 0.0 6.0 0.00 0.00 0.00 61 1017.5
20260831212024 93 0 1.0 6.0 0.00 0.00 0.00 62 1017.4
20260831211539 93 0 0.0 4.0 0.00 0.00 0.00 61 1017.4
20260831211024 93 0 0.0 4.0 0.00 0.00 0.00 61 1017.4
20260831210524 94 269 0.0 5.0 0.00 0.00 0.00 62 1017.3
20260831210042 94 0 0.0 5.0 0.00 0.00 0.00 61 1017.3
20260831205524 94 0 0.0 1.0 0.00 0.00 0.00 61 1017.4
20260831205024 93 0 0.0 4.0 0.00 0.00 0.00 63 1017.5
20260831204541 93 0 0.0 4.0 0.00 0.00 0.00 64 1017.6
20260831204025 92 0 0.0 7.0 0.00 0.00 0.00 66 1017.5
20260831203523 92 0 1.0 7.0 0.00 0.00 0.00 64 1017.5
20260831203100 91 314 0.0 4.0 0.00 0.00 0.00 65 1017.6
20260831202525 90 0 0.0 0.0 0.00 0.00 0.00 70 1017.8
20260831202023 91 0 0.0 1.0 0.00 0.00 0.00 68 1017.8
20260831201550 91 0 0.0 1.0 0.00 0.00 0.00 64 1017.9
20260831201027 92 0 0.0 3.0 0.00 0.00 0.00 64 1018.0
20260831200524 93 0 0.0 4.0 0.00 0.00 0.00 61 1018.1
20260831200124 93 0 0.0 4.0 0.00 0.00 0.00 62 1018.1
20260831195526 94 313 0.0 3.0 0.00 0.00 0.00 62 1018.2
20260831195024 93 0 0.0 4.0 0.00 0.00 0.00 63 1018.1
20260831194540 93 0 0.0 4.0 0.00 0.00 0.00 62 1018.3
20260831194025 93 0 0.0 2.0 0.00 0.00 0.00 64 1018.4
20260831193525 93 257 0.0 4.0 0.00 0.00 0.00 63 1018.2
20260831193041 93 0 0.0 4.0 0.00 0.00 0.00 62 1018.3
20260831192523 93 0 0.0 4.0 0.00 0.00 0.00 64 1018.3
20260831192023 93 28 0.0 4.0 0.00 0.00 0.00 64 1018.2
20260831191545 93 0 0.0 4.0 0.00 0.00 0.00 66 1018.3
20260831191026 93 0 0.0 6.0 0.00 0.00 0.00 66 1018.4
20260831190528 93 0 0.0 6.0 0.00 0.00 0.00 66 1018.4
20260831190043 93 0 0.0 3.0 0.00 0.00 0.00 63 1018.6
20260831185525 92 0 0.0 1.0 0.00 0.00 0.00 66 1018.7
20260831185028 92 0 0.0 1.0 0.00 0.00 0.00 66 1018.8
20260831184545 92 0 0.0 1.0 0.00 0.00 0.00 65 1018.9